STARLINK-32847, 62811

Orbit data source: Space-Track

STARLINK-32847, 62811 is a payload satellite owned by SpaceX/Seattle (US) in LEO that was launched on Fri, 24 Jan 2025 UTC via an FALCON 9 launch vehicle from the Air Force Western Test Range (AFWTR). Payload-class satellites include a variety of spacecraft equipped with specific instruments for various scientific and technological missions. These include communications satellites like Starlink; space stations such as the ISS; scientific satellites like the Hubble; Earth observation satellites from companies like Planet Labs, Umbra, and HawkEye 360; GPS; miniature CubeSats for education and research; and military/defense satellites.

Loading next visibility...
Identifier
62811, 2025-018F
Orbit
LEO
Last TLE update
6 hours ago
Origin
Manufacturer
SpaceX/Seattle
Mission
Operational Commercial Communications
Bus & Motor
STARLINK V2M, Unknown motor
Mass
730 kg wet, ~700 kg dry
Launch date (UTC)
2025-01-24 (6 months ago)
Launch vehicle
FALCON 9
Launch site
Air Force Western Test Range (AFWTR)
Object type
Payload
Rocket body
Debris
Shape & HBR
Box + 2 Pan, 14.5 m
Radar Cross Section
33.884 m², Large (>1 m²)

Expand to show TLE details & history

TLE from 6 hours ago
0 STARLINK-32847
1 62811U 25018F   25199.48158873  .00023134  00000-0  79058-3 0  9999
2 62811  53.1579 317.2185 0001268  92.9512 267.1634 15.30207730 28256
Epoch: 2025-07-18T11:33Z
TLE epoch observation values (Epoch: 2025-07-18T11:33:29.266Z)
Latitude
Longitude
-152.68587°
Altitude
476.135 km
Speed
7.629 km/s
True Right ascension
21h 08m 52s
True Declination
0° 00' 00"
Sunlit
Object was in full shadow at epoch
Visualization orbit readout
Latitude
-17.29397°
Longitude
-167.29563°
Altitude
480.233 km
Speed
7.625 km/s
Apparent Right ascension
19h 27m 52s
Apparent Declination
-28° 35' 53"
Sunlit
Object is in full shadow
Visualization observer readout
Local Sidereal Time
06:30:42
Azimuth
309.52° NW
Elevation
-73.68°
Doppler factor
1
Orbital elements
Apogee altitude
476.318 km
Perigee altitude
474.58 km
Semi-major axis
6,853.586 km
Eccentricity
0.00013
Inclination
53.1579°
RAAN
317.2185°
Arg. of periapsis
92.9512°
True anomaly
267.14889°
Mean anomaly
267.1634°
Eccentric anomaly
267.15614°
Mean motion
3.82531 °/min
Orbital period
94.11 mins
BSTAR
0.00079058
Loading maneuver chart data...
Loading SW <> Apogee altitude chart data...
Loading historical data...
Loading historical data...
Loading historical data...
Loading historical data...
Loading historical data...
Loading historical data...
Loading historical data...
|